Date,TemperatureHighF,TemperatureAvgF,TemperatureLowF,DewpointHighF,DewpointAvgF,DewpointLowF,HumidityHigh,HumidityAvg,HumidityLow,PressureMaxIn,PressureMinIn,WindSpeedMaxMPH,WindSpeedAvgMPH,GustSpeedMaxMPH,PrecipitationSumIn
2013-1-1,38.0,35.9,34.0,35.0,30.9,25.0,100,83,64,0.00,40.00,6,4,16,0.10
2013-1-2,38.0,36.2,35.0,33.0,29.6,28.0,85,77,69,0.00,40.00,7,4,18,0.01
2013-1-3,38.0,34.9,32.0,35.0,32.6,30.0,100,92,75,0.00,40.00,7,4,17,0.07
2013-1-4,35.0,30.7,27.0,33.0,29.5,26.0,100,96,73,0.00,40.00,4,1,10,0.01
2013-1-5,31.0,29.3,28.0,29.0,27.3,26.0,100,92,83,0.00,40.00,4,3,11,0.00
2013-1-6,36.0,31.0,28.0,32.0,27.8,25.0,99,88,71,0.00,40.00,3,2,12,0.00
2013-1-7,33.0,28.5,23.0,33.0,28.3,22.0,100,99,94,0.00,40.00,3,2,12,0.00
2013-1-8,26.0,20.8,15.0,26.0,20.7,15.0,100,100,97,0.00,40.00,1,0,3,0.00
2013-1-9,18.0,13.4,8.0,18.0,12.8,6.0,100,97,92,0.00,40.00,2,0,6,0.00
2013-1-10,24.0,21.7,18.0,24.0,21.7,18.0,100,99,98,0.00,40.00,1,0,5,0.00
2013-1-11,29.0,25.5,23.0,29.0,25.5,23.0,100,100,99,0.00,40.00,2,1,6,0.00
2013-1-12,43.0,32.8,24.0,36.0,30.8,24.0,100,93,74,0.00,40.00,8,3,21,0.35
2013-1-13,43.0,38.9,35.0,39.0,36.4,32.0,100,91,65,0.00,40.00,6,3,27,0.65
2013-1-14,44.0,40.1,33.0,41.0,32.3,18.0,99,74,55,0.00,40.00,8,5,21,0.38
2013-1-15,31.0,27.2,24.0,19.0,15.9,9.0,79,62,45,0.00,40.00,6,1,14,0.01
2013-1-16,28.0,23.4,20.0,22.0,20.3,17.0,100,88,63,0.00,40.00,4,1,10,0.00
2013-1-17,21.0,18.4,12.0,21.0,17.5,11.0,100,96,84,0.00,40.00,1,0,4,0.00
2013-1-18,14.0,9.4,0.0,13.0,7.2,-3.0,97,91,83,0.00,40.00,3,1,8,0.00
2013-1-19,25.0,18.6,12.0,24.0,16.8,10.0,96,93,89,0.00,40.00,6,4,16,0.00
2013-1-20,38.0,30.1,25.0,33.0,28.0,24.0,100,92,70,0.00,40.00,7,3,20,0.01
2013-1-21,30.0,24.3,18.0,28.0,23.3,18.0,100,96,86,0.00,40.00,5,2,14,0.01
2013-1-22,33.0,31.3,30.0,29.0,27.7,26.0,92,86,80,0.00,40.00,5,3,11,0.00
2013-1-23,33.0,29.0,25.0,29.0,26.7,25.0,100,91,79,0.00,40.00,4,2,11,0.00
2013-1-24,42.0,29.8,20.0,32.0,26.6,20.0,100,89,55,0.00,40.00,3,1,7,0.02
2013-1-25,35.0,20.0,-1.0,30.0,12.7,-7.0,100,74,44,0.00,40.00,5,2,14,0.01
2013-1-26,11.0,-2.0,-10.0,-6.0,-10.8,-15.0,83,68,34,0.00,40.00,1,0,6,0.00
2013-1-27,4.0,-8.3,-16.0,-9.0,-16.8,-21.0,81,67,37,0.00,40.00,2,0,10,0.00
2013-1-28,8.0,-2.8,-14.0,4.0,-8.9,-20.0,87,74,62,0.00,40.00,6,2,15,0.00
2013-1-29,14.0,10.2,7.0,10.0,7.0,4.0,89,87,83,0.00,40.00,6,3,16,0.00
2013-1-30,41.0,24.3,14.0,33.0,21.5,12.0,98,89,70,0.00,40.00,6,3,19,0.23
2013-1-31,36.0,31.8,28.0,36.0,31.8,28.0,100,100,100,0.00,40.00,3,1,10,0.18